Isachsen, Nunavut

7:28 AM MDT on April 26, 2017 (GMT -0600)
Isachsen

Weather History for CWIC - August, 2013

Change the Weather History Date:

Tuesday, August 6, 2013

  Actual Average Record
Temperature  
Mean Temperature 38 °F -  
Max Temperature 41 °F - - ()
Min Temperature 34 °F - - ()
Degree Days  
Heating Degree Days 28    
Moisture  
Dew Point 38 °F    
Average Humidity 99    
Maximum Humidity 100    
Minimum Humidity 96    
Precipitation  
Precipitation 0.02 in - - ()
Sea Level Pressure  
Sea Level Pressure 30.06 in    
Wind  
Wind Speed 7 mph ()    
Max Wind Speed 14 mph    
Max Gust Speed -    
T = Trace of Precipitation, MM = Missing Value Source: Averaged Metar Reports

Daily Weather History Graph

Daily Weather History Graph

Search for Another Location

Airport or City:

Trip Planner

Search our weather history database for the weather conditions in past years. The results will help you decide how hot, cold, wet, or windy it might be!

Date:

Astronomy

Dec. 31, 1969 Rise Set
Actual Time Sun does not set Sun does not set
Civil Twilight Sun does not set Sun does not set
Nautical Twilight Sun does not set Sun does not set
Astronomical Twilight Sun does not set Sun does not set
Moon No Moon Rise 11:41 PM MDT (8/6)
Length of Visible Light 24h 00m
Length of Day
24h 00m
Waning Crescent, 0% of the Moon is Illuminated
Aug 6
Waning Crescent
Aug 6
New
Aug 14
First Quarter
Aug 20
Full
Aug 28
Last Quarter

Hourly Weather History & Observations

Time (MDT) Temp. Windchill Dew Point Humidity Pressure Visibility Wind Dir Wind Speed Gust Speed Precip Events Conditions
12:00 AM 35 °F - 34 °F 96% 29.98 in - SW 4.6 mph - -  
12:00 AM 34.5 °F 29.4 °F 34.5 °F 100% 29.98 in - SW 5.8 mph - N/A   Unknown
1:00 AM 35.6 °F 27.5 °F 35.4 °F 99% 29.99 in - SW 11.5 mph - N/A   Unknown
2:00 AM 36.3 °F 28.4 °F 36.3 °F 100% 29.99 in - WSW 11.5 mph - N/A   Unknown
3:00 AM 36.1 °F 28.7 °F 36.1 °F 100% 30.00 in - WSW 10.4 mph - 0.01 in   Unknown
4:00 AM 36.7 °F 28.0 °F 36.5 °F 99% 30.01 in - West 13.8 mph - N/A   Unknown
5:00 AM 37.2 °F 30.0 °F 37.2 °F 100% 30.02 in - West 10.4 mph - N/A   Unknown
6:00 AM 37 °F - 37 °F 99% 30.04 in - West 11.5 mph - -  
6:00 AM 37.0 °F 29.8 °F 37.0 °F 100% 30.04 in - West 10.4 mph - N/A   Unknown
7:00 AM 37.2 °F 30.6 °F 37.2 °F 100% 30.04 in - WSW 9.2 mph - N/A   Unknown
8:00 AM 37.6 °F 30.0 °F 37.4 °F 99% 30.05 in - WSW 11.5 mph - N/A   Unknown
9:00 AM 36.9 °F 30.1 °F 36.9 °F 100% 30.06 in - WSW 9.2 mph - 0.01 in   Unknown
10:00 AM 37.2 °F 31.2 °F 37.2 °F 100% 30.07 in - WSW 8.1 mph - N/A   Unknown
11:00 AM 37.0 °F 31.0 °F 36.9 °F 99% 30.07 in - WSW 8.1 mph - N/A   Unknown
12:00 PM 38 °F - 37 °F 97% 30.08 in - SW 5.8 mph - -  
12:00 PM 37.6 °F 33.1 °F 37.4 °F 99% 30.08 in - SW 5.8 mph - N/A   Unknown
1:00 PM 39.0 °F 36.8 °F 38.8 °F 99% 30.09 in - SW 3.5 mph - N/A   Unknown
2:00 PM 38.8 °F 35.4 °F 38.7 °F 99% 30.09 in - SW 4.6 mph - N/A   Unknown
3:00 PM 40.1 °F - 39.9 °F 99% 30.09 in - West 1.2 mph - N/A   Unknown
4:00 PM 40.3 °F 37.1 °F 40.1 °F 99% 30.10 in - WNW 4.6 mph - N/A   Unknown
5:00 PM 40.5 °F 38.4 °F 40.3 °F 99% 30.11 in - North 3.5 mph - N/A   Unknown
6:00 PM 41 °F - 40 °F 96% 30.10 in - NNE 3.5 mph - -  
6:00 PM 40.6 °F - 40.5 °F 99% 30.10 in - NNE 2.3 mph - N/A   Unknown
7:00 PM 41.2 °F 36.6 °F 40.8 °F 99% 30.10 in - NNW 6.9 mph - N/A   Unknown
8:00 PM 38.7 °F 30.9 °F 38.5 °F 99% 30.09 in - NNE 12.7 mph - N/A   Unknown
9:00 PM 38.1 °F 31.2 °F 37.9 °F 99% 30.11 in - NNE 10.4 mph - N/A   Unknown
10:00 PM 37.9 °F 31.5 °F 37.8 °F 99% 30.10 in - NNE 9.2 mph - N/A   Unknown
11:00 PM 36.1 °F 28.7 °F 36.1 °F 100% 30.11 in - NNE 10.4 mph - N/A   Unknown